Location: Berkeley
(37.8716°N, 122.2727°W)
Time: 13:35:59
(UTC-07:00)

Tiangong 2 - Pass Details

Date: 18 February 2019
Orbit: 380 x 390 km, 42.8° (Epoch: 23 March)

Event Time Altitude Azimuth Distance (km) Brightness Sun altitude
Rises 18:13:56 0° 292° (WNW) 2,256 6.0 -5.2°
Reaches altitude 10° 18:16:04 10° 299° (WNW) 1,400 4.8 -5.6°
Maximum altitude 18:19:07 45° 14° (NNE) 530 1.6 -6.2°
Drops below altitude 10° 18:22:09 10° 89° (E) 1,392 3.2 -6.8°
Enters shadow 18:22:22 - 90° (E) 1,482 3.4 -6.9°
